[keps] orb09253.amsat
Ray Hoad
r.hoad at att.net
Thu Sep 10 20:58:52 PDT 2009
SB KEPS @ AMSAT $ORB09253.O
Orbital Elements 09253.OSCAR
HR AMSAT ORBITAL ELEMENTS FOR OSCAR SATELLITES
FROM WA5QGD FORT WORTH,TX September 10, 2009
Send Subscribe/unsubscribe to KEPS at
http://www.amsat.org/mailman/listinfo/keps
BID: ORB09253.O
TO ALL RADIO AMATEURS BT
Satellite: AO-07
Catalog number: 07530
Epoch time: 09251.48645756
Element set: 575
Inclination: 101.4231 deg
RA of node: 273.0962 deg
Eccentricity: 0.0012045
Arg of perigee: 104.5946 deg
Mean anomaly: 255.6469 deg
Mean motion: 12.53576440 rev/day
Decay rate: -2.7e-07 rev/day^2
Epoch rev: 59315
Checksum: 301
Satellite: FO-29
Catalog number: 24278
Epoch time: 09252.75275727
Element set: 0142
Inclination: 098.5392 deg
RA of node: 115.3747 deg
Eccentricity: 0.0351157
Arg of perigee: 131.1421 deg
Mean anomaly: 232.0585 deg
Mean motion: 13.52945091 rev/day
Decay rate: -2.8e-07 rev/day^2
Epoch rev: 64518
Checksum: 310
Satellite: SO-33
Catalog number: 25509
Epoch time: 09252.56038837
Element set: 538
Inclination: 031.4344 deg
RA of node: 295.3926 deg
Eccentricity: 0.0354376
Arg of perigee: 356.1155 deg
Mean anomaly: 003.6750 deg
Mean motion: 14.28264019 rev/day
Decay rate: 2.36e-06 rev/day^2
Epoch rev: 56790
Checksum: 316
Satellite: RS-22
Catalog number: 27939
Epoch time: 09252.64559470
Element set: 0888
Inclination: 097.9292 deg
RA of node: 124.3832 deg
Eccentricity: 0.0012616
Arg of perigee: 224.3296 deg
Mean anomaly: 135.6900 deg
Mean motion: 14.63339188 rev/day
Decay rate: 5.0e-07 rev/day^2
Epoch rev: 31792
Checksum: 329
Satellite: VO-52
Catalog number: 28650
Epoch time: 09253.88735007
Element set: 316
Inclination: 097.7337 deg
RA of node: 312.5994 deg
Eccentricity: 0.0028300
Arg of perigee: 109.1414 deg
Mean anomaly: 251.2834 deg
Mean motion: 14.81618212 rev/day
Decay rate: 2.23e-06 rev/day^2
Epoch rev: 23533
Checksum: 289
/EX
SB KEPS @ AMSAT $ORB09253.D
Orbital Elements 09253.MICROS
HR AMSAT ORBITAL ELEMENTS FOR THE MICROSATS
FROM WA5QGD FORT WORTH,TX September 10, 2009
Send Subscribe/unsubscribe to KEPS at
http://www.amsat.org/mailman/listinfo/keps
BID: ORB09253.D
TO ALL RADIO AMATEURS BT
Satellite: AO-16
Catalog number: 20439
Epoch time: 09252.89980339
Element set: 0700
Inclination: 098.2886 deg
RA of node: 217.4883 deg
Eccentricity: 0.0010094
Arg of perigee: 281.5355 deg
Mean anomaly: 078.4700 deg
Mean motion: 14.31832546 rev/day
Decay rate: -4.0e-08 rev/day^2
Epoch rev: 02527
Checksum: 312
Satellite: LO-19
Catalog number: 20442
Epoch time: 09252.87305814
Element set: 0614
Inclination: 098.2524 deg
RA of node: 224.3974 deg
Eccentricity: 0.0010909
Arg of perigee: 275.7197 deg
Mean anomaly: 084.2739 deg
Mean motion: 14.32067370 rev/day
Decay rate: 2.0e-07 rev/day^2
Epoch rev: 02543
Checksum: 298
Satellite: AO-27
Catalog number: 22825
Epoch time: 09251.03260794
Element set: 335
Inclination: 098.4448 deg
RA of node: 201.8770 deg
Eccentricity: 0.0008785
Arg of perigee: 026.4323 deg
Mean anomaly: 333.7309 deg
Mean motion: 14.29272543 rev/day
Decay rate: -2.0e-08 rev/day^2
Epoch rev: 83174
Checksum: 302
Satellite: IO-26
Catalog number: 22826
Epoch time: 09251.42816736
Element set: 64
Inclination: 098.4369 deg
RA of node: 202.9737 deg
Eccentricity: 0.0009443
Arg of perigee: 020.1599 deg
Mean anomaly: 339.9954 deg
Mean motion: 14.29525251 rev/day
Decay rate: -6.0e-08 rev/day^2
Epoch rev: 83190
Checksum: 325
Satellite: GO-32
Catalog number: 25397
Epoch time: 09252.72134600
Element set: 0987
Inclination: 098.3246 deg
RA of node: 270.5276 deg
Eccentricity: 0.0001609
Arg of perigee: 043.3204 deg
Mean anomaly: 316.8097 deg
Mean motion: 14.23163554 rev/day
Decay rate: 4.4e-07 rev/day^2
Epoch rev: 58015
Checksum: 295
Satellite: NO-44
Catalog number: 26931
Epoch time: 09253.84832389
Element set: 261
Inclination: 067.0507 deg
RA of node: 203.6539 deg
Eccentricity: 0.0006858
Arg of perigee: 275.5569 deg
Mean anomaly: 084.4742 deg
Mean motion: 14.29566115 rev/day
Decay rate: -2.7e-07 rev/day^2
Epoch rev: 41482
Checksum: 330
Satellite: SO-50
Catalog number: 27607
Epoch time: 09252.80293657
Element set: 0980
Inclination: 064.5580 deg
RA of node: 128.1015 deg
Eccentricity: 0.0057624
Arg of perigee: 184.6962 deg
Mean anomaly: 175.3591 deg
Mean motion: 14.71457230 rev/day
Decay rate: 8.0e-08 rev/day^2
Epoch rev: 36112
Checksum: 306
Satellite: CO-55
Catalog number: 27844
Epoch time: 09251.02922352
Element set: 662
Inclination: 098.7141 deg
RA of node: 259.0319 deg
Eccentricity: 0.0009023
Arg of perigee: 267.0079 deg
Mean anomaly: 093.0057 deg
Mean motion: 14.20654530 rev/day
Decay rate: 3.9e-07 rev/day^2
Epoch rev: 32102
Checksum: 280
Satellite: CO-57
Catalog number: 27848
Epoch time: 09252.56803234
Element set: 0613
Inclination: 098.7172 deg
RA of node: 259.6115 deg
Eccentricity: 0.0009001
Arg of perigee: 266.6059 deg
Mean anomaly: 093.4093 deg
Mean motion: 14.20454601 rev/day
Decay rate: 1.3e-07 rev/day^2
Epoch rev: 32120
Checksum: 285
Satellite: AO-51
Catalog number: 28375
Epoch time: 09253.67033633
Element set: 482
Inclination: 098.0544 deg
RA of node: 258.3006 deg
Eccentricity: 0.0082849
Arg of perigee: 225.7289 deg
Mean anomaly: 133.7085 deg
Mean motion: 14.40651560 rev/day
Decay rate: 1.0e-08 rev/day^2
Epoch rev: 27326
Checksum: 307
Satellite: CO-56
Catalog number: 28941
Epoch time: 09253.80273645
Element set: 429
Inclination: 098.1328 deg
RA of node: 085.1475 deg
Eccentricity: 0.0057369
Arg of perigee: 165.9883 deg
Mean anomaly: 194.3037 deg
Mean motion: 15.96881241 rev/day
Decay rate: 1.14277e-03 rev/day^2
Epoch rev: 20085
Checksum: 351
Satellite: GENESAT1
Catalog number: 29655
Epoch time: 09253.67228215
Element set: 803
Inclination: 040.0238 deg
RA of node: 007.0205 deg
Eccentricity: 0.0002381
Arg of perigee: 038.0349 deg
Mean anomaly: 322.0636 deg
Mean motion: 15.67287107 rev/day
Decay rate: 1.0240e-04 rev/day^2
Epoch rev: 15588
Checksum: 270
Satellite: CP3
Catalog number: 31129
Epoch time: 09253.61356963
Element set: 185
Inclination: 097.9817 deg
RA of node: 302.5671 deg
Eccentricity: 0.0103088
Arg of perigee: 021.1705 deg
Mean anomaly: 339.3712 deg
Mean motion: 14.52160567 rev/day
Decay rate: 9.3e-07 rev/day^2
Epoch rev: 12728
Checksum: 299
Satellite: CO-65
Catalog number: 32785
Epoch time: 09253.15809303
Element set: 467
Inclination: 097.9382 deg
RA of node: 316.3902 deg
Eccentricity: 0.0016048
Arg of perigee: 113.3821 deg
Mean anomaly: 246.9087 deg
Mean motion: 14.81516225 rev/day
Decay rate: 3.31e-06 rev/day^2
Epoch rev: 7402
Checksum: 302
Satellite: KKS-1
Catalog number: 33493
Epoch time: 09253.92116088
Element set: 743
Inclination: 098.0640 deg
RA of node: 006.5363 deg
Eccentricity: 0.0019540
Arg of perigee: 327.8587 deg
Mean anomaly: 032.1412 deg
Mean motion: 14.80724263 rev/day
Decay rate: 1.25e-06 rev/day^2
Epoch rev: 3415
Checksum: 281
Satellite: SOHLA-1
Catalog number: 33496
Epoch time: 09253.91273903
Element set: 708
Inclination: 098.0438 deg
RA of node: 001.9091 deg
Eccentricity: 0.0007218
Arg of perigee: 020.4541 deg
Mean anomaly: 339.6931 deg
Mean motion: 14.69445032 rev/day
Decay rate: -2.8e-07 rev/day^2
Epoch rev: 3386
Checksum: 294
/EX
SB KEPS @ AMSAT $ORB09253.W
Orbital Elements 09253.WEATHER
HR AMSAT ORBITAL ELEMENTS FOR WEATHER SATELLITES
FROM WA5QGD FORT WORTH,TX September 10, 2009
Send Subscribe/unsubscribe to KEPS at
http://www.amsat.org/mailman/listinfo/keps
BID: ORB09253.W
TO ALL RADIO AMATEURS BT
Satellite: NOAA-10
Catalog number: 16969
Epoch time: 09252.69493505
Element set: 0755
Inclination: 098.6876 deg
RA of node: 278.8681 deg
Eccentricity: 0.0011786
Arg of perigee: 314.1076 deg
Mean anomaly: 045.9153 deg
Mean motion: 14.27393394 rev/day
Decay rate: -8.4e-07 rev/day^2
Epoch rev: 19556
Checksum: 359
Satellite: NOAA-11
Catalog number: 19531
Epoch time: 09252.85433658
Element set: 0774
Inclination: 098.7830 deg
RA of node: 341.4945 deg
Eccentricity: 0.0010983
Arg of perigee: 225.2476 deg
Mean anomaly: 134.7786 deg
Mean motion: 14.14903289 rev/day
Decay rate: 9.0e-07 rev/day^2
Epoch rev: 08149
Checksum: 332
Satellite: NOAA-12
Catalog number: 21263
Epoch time: 09252.96244436
Element set: 0282
Inclination: 098.7747 deg
RA of node: 261.0708 deg
Eccentricity: 0.0011337
Arg of perigee: 260.7757 deg
Mean anomaly: 099.2140 deg
Mean motion: 14.25592393 rev/day
Decay rate: 3.7e-07 rev/day^2
Epoch rev: 95247
Checksum: 316
Satellite: MET-3/5
Catalog number: 21655
Epoch time: 09252.93071952
Element set: 0697
Inclination: 082.5554 deg
RA of node: 146.6464 deg
Eccentricity: 0.0013633
Arg of perigee: 335.3254 deg
Mean anomaly: 024.7214 deg
Mean motion: 13.17020353 rev/day
Decay rate: 5.1e-07 rev/day^2
Epoch rev: 86878
Checksum: 303
Satellite: MET-2/21
Catalog number: 22782
Epoch time: 09252.93120676
Element set: 0562
Inclination: 082.5459 deg
RA of node: 114.7987 deg
Eccentricity: 0.0023683
Arg of perigee: 107.6650 deg
Mean anomaly: 252.7095 deg
Mean motion: 13.83638210 rev/day
Decay rate: -2.0e-07 rev/day^2
Epoch rev: 80932
Checksum: 309
Satellite: OKEAN-4
Catalog number: 23317
Epoch time: 09253.40161630
Element set: 13
Inclination: 082.5369 deg
RA of node: 254.9598 deg
Eccentricity: 0.0024059
Arg of perigee: 083.9282 deg
Mean anomaly: 276.4648 deg
Mean motion: 14.82719197 rev/day
Decay rate: 2.42e-06 rev/day^2
Epoch rev: 80499
Checksum: 325
Satellite: NOAA-14
Catalog number: 23455
Epoch time: 09252.67296926
Element set: 0752
Inclination: 098.9051 deg
RA of node: 330.0353 deg
Eccentricity: 0.0008755
Arg of perigee: 315.2835 deg
Mean anomaly: 044.7637 deg
Mean motion: 14.13769162 rev/day
Decay rate: -1.07e-06 rev/day^2
Epoch rev: 75786
Checksum: 327
Satellite: NOAA-15
Catalog number: 25338
Epoch time: 09252.74596442
Element set: 0075
Inclination: 098.5920 deg
RA of node: 240.1299 deg
Eccentricity: 0.0010774
Arg of perigee: 165.8976 deg
Mean anomaly: 194.2486 deg
Mean motion: 14.24782968 rev/day
Decay rate: 7.0e-08 rev/day^2
Epoch rev: 58881
Checksum: 353
